STARLINK-36752

Last updated on Sat Mar 14 2026 00:02:06 GMT+0000 (Coordinated Universal Time)

1 67724U 26026D 26072.58334491 .00090399 00000+0 27732-2 0 9998 2 67724 97.2847 127.0935 0001456 85.0840 148.9582 15.33397921 5941
UTC large
Height (km)
Speed (km/s)
/
Latitude / Longitude
Inclination (degrees)
Orbital Period (minutes)
Azimuth
Elevation
Range (km)
Doppler Factor

Next 0 passes for location: London (51.5072 / 0.1276)

Sorry there are no passes over London.